SCP
-0 -0 0 0 0 -0 0 0 -0 -0 -0 0 0 0 0 0 0 -0 -0 -0 -0 0 -0 -0 -0 -0 -0 -0 -0 0 0 -0 -0 -0 -0 -0 0 -0 -0 -0 -0 0 -0 0 -0 -0 -0 0 -0
-0 -0 0 0 0 -0 -0 0 -0 -0 -0 0 0 0 0 0 0 0 0 -0 0 0 -0 -0 -0 -0 -0 -0 -0 -0 0 -0 -0 -0 -0 -0 0 -0 -0 -0 -0 -0 0 0 0 0 -0 0 0
-0 0 0 0 0 -0 -0 0 -0 -0 0 0 0 0 0 0 0 0 0 0 0 -0 0 -0 -0 -0 -0 -0 -0 -0 -0 -0 -0 -0 -0 -0 0 0 -0 -0 -0 -0 -0 -0 0 0 0 0 0
0 0 0 0 0 0 -0 -0 -0 0 -0 0 0 0 0 0 0 0 0 -0 -0 -0 -0 -0 -0 -0 -0 -0 -0 -0 -0 -0 0 -0 -0 -0 -0 -0 0 -0 0 -0 0 -0 -0 -0 0 0 0
0 0 0 0 0 0 0 -0 0 -0 -0 -0 0 -0 -0 -0 0 -0 -0 -0 -0 -0 -0 -0 0 -0 -0 -0 -0 -0 -0 -0 -0 -0 0 -0 -0 -0 0 0 0 0 0 0 0 -0 0 0 0
0 0 0 0 0 0 0 0 0 0 0 -0 -0 0 -0 -0 -0 -0 -0 -0 -0 -0 -0 -0 -0 -0 -0 -0 -0 -0 -0 -0 0 0 0 -0 -0 -0 0 0 0 0 0 0 0 0 0 0 0
0 0 0 0 0 0 0 0 0 0 0 0 0 0 0 -0 -0 -0 -0 -0 -0 -0 -0 -0 -0 -0 -0 -0 -0 -0 -0 -0 0 0 0 0 0 0 0 0 0 0 0 0 0 0 0 0 0
0 0 0 0 0 0 0 0 0 0 0 0 0 0 -0 0 0 -0 -0 -0 -0 -0 -0 -0 -0 -0 -0 -0 -0 0 0 -0 -0 0 0 0 0 0 0 0 0 0 0 0 0 0 0 0 0
0 0 0 0 0 0 0 0 0 0 0 0 0 0 0 0 -0 -0 -0 -0 -0 0 -0 -0 0 -0 -0 -0 -0 -0 0 0 0 0 0 0 0 0 0 0 0 0 0 0 0 0 0 0 0
0 0 0 0 0 0 0 0 0 0 0 0 0 0 0 0 0 -0 -0 -0 -0 -0 -0 0 0 0 0 0 0 0 0 0 0 0 0 0 0 0 0 0 0 0 0 0 0 0 0 0 0
0 0 0 0 0 0 0 0 0 0 0 0 0 0 0 0 0 0 0 0 -0 -0 -0 -0 0 0 0 0 0 0 0 0 0 0 0 0 0 0 0 0 0 0 0 0 0 0 0 0 0
0 0 0 0 0 0 0 0 0 0 0 0 0 0 0 0 0 0 0 0 0 0 0 0 0 0 0 0 0 0 0 0 0 0 0 0 0 0 0 0 0 0 0 0 0 0 0 0 0
0 0 0 0 0 0 0 0 0 0 0 0 0 0 0 0 0 0 0 0 0 0 0 0 0 0 0 0 0 0 0 0 0 0 0 0 0 0 0 0 0 0 0 0 0 0 0 0 0
0 0 0 0 0 0 0 0 0 0 0 0 0 0 0 0 0 0 0 0 0 0 0 0 0 0 0 0 0 0 0 0 0 0 0 0 0 0 0 0 0 0 0 0 0 0 0 0 0
0 0 0 0 0 0 0 0 0 0 0 0 0 0 0 0 0 0 0 0 0 0 0 0 0 0 0 0 0 0 0 0 0 0 0 0 0 0 0 0 0 0 0 0 0 0 0 0 0
0 0 0 0 0 0 0 -0 0 0 0 0 0 0 0 0 0 0 0 0 0 0 0 0 0 0 0 0 0 0 0 0 0 0 0 0 0 0 0 0 0 0 0 0 0 0 0 0 0
0 0 -0 0 0 0 0 0 0 0 0 0 0 0 0 0 0 0 0 0 0 0 0 0 0 0 0 0 0 0 0 0 0 0 0 0 0 0 0 0 0 0 0 0 0 0 0 0 0
0 0 0 0 0 0 0 0 0 0 0 0 0 0 0 0 0 0 0 0 0 0 0 0 0 0 0 0 0 0 0 0 0 0 0 0 0 0 0 0 0 0 0 0 0 0 0 0 0
0 0 0 0 0 0 0 0 0 0 0 0 0 0 0 0 0 0 0 0 0 0 0 0 0 0 0 0 0 0 0 0 0 0 0 0 0 0 0 0 0 0 0 0 0 0 0 0 0
0 0 0 0 0 0 0 0 0 0 0 0 0 0 0 0 0 0 0 0 0 0 0 0 0 0 0 0 0 0 0 0 0 0 0 0 0 0 0 0 0 0 0 0 0 0 0 0 0
0 0 0 0 0 -0 0 0 0 0 0 0 0 0 0 0 0 0 0 0 0 0 0 0 0 0 0 0 0 0 0 0 0 0 0 0 0 0 0 0 0 0 0 0 0 0 0 0 0
0 0 0 0 0 0 0 0 0 0 0 0 0 0 0 0 0 0 0 0 0 0 0 0 0 0 0 0 0 0 0 0 0 0 0 0 0 0 0 0 0 0 0 0 0 0 0 0 0
0 0 0 0 0 0 0 0 0 0 0 0 0 0 0 0 0 0 0 0 0 0 0 0 0 0 0 0 0 0 0 0 0 0 0 0 0 0 0 0 0 0 0 0 0 0 0 0 0
0 0 0 0 0 0 0 0 0 0 0 0 0 0 0 0 0 0 0 0 0 0 0 0 0 0 0 0 0 0 0 0 0 0 0 0 0 0 0 0 0 0 0 0 0 0 0 0 0
0 0 0 0 0 0 0 0 0 0 0 0 0 0 0 0 0 0 0 0 0 0 0 0 0 0 0 0 0 0 0 0 0 0 0 0 0 0 0 0 0 0 0 0 0 0 0 0 0
0 0 0 0 0 0 0 0 0 0 0 0 0 0 0 0 0 0 0 0 0 0 0 0 0 0 0 0 0 0 0 0 0 0 0 0 0 0 0 0 0 0 0 0 0 0 0 0 0
0 0 0 0 0 0 0 0 0 0 0 0 0 0 0 0 0 0 0 0 0 0 0 0 0 0 0 0 0 0 0 0 0 0 0 0 0 0 0 0 0 0 0 0 0 0 0 0 0
0 0 0 0 0 0 0 0 0 0 0 0 0 0 0 0 0 0 0 0 0 0 0 0 0 0 0 0 0 0 0 0 0 0 0 0 0 0 0 0 0 0 0 0 0 0 0 0 0
0 0 0 0 0 0 0 0 0 0 0 0 0 0 0 0 0 0 0 0 0 0 0 0 0 0 0 0 0 0 0 0 0 0 0 0 0 0 0 0 0 0 0 0 0 0 0 0 0
0 0 0 0 0 0 0 0 0 0 0 0 0 0 0 0 0 0 0 0 0 0 0 0 0 0 0 0 0 0 0 0 0 0 0 0 0 0 0 0 0 0 0 0 0 0 0 0 0
Wind_Speed_500mb
33 28 10 6 10 2 11 10 8 9 9 12 9 14 18 21 20 9 5 10 18 22 17 19 16 12 4 4 5 4 2 12 10 6 13 12 9 5 3 6 7 8 8 18 20 18 14 12 8
32 24 6 7 8 10 14 8 15 16 17 9 6 6 7 20 17 10 10 12 21 19 17 18 17 11 3 5 5 1 6 6 14 7 2 2 5 3 7 5 8 11 11 14 16 13 13 12 6
28 14 10 4 5 13 13 9 18 16 8 8 4 10 10 13 12 7 8 13 21 19 20 20 14 4 3 5 4 3 7 10 11 7 6 7 7 3 6 3 5 5 11 11 7 13 12 10 8
25 4 7 11 15 13 18 14 16 16 9 6 4 13 13 11 5 5 8 15 22 20 22 15 13 7 4 2 4 4 10 17 15 14 14 8 6 9 8 5 5 4 3 10 5 18 14 9 7
11 8 5 7 11 12 13 14 7 10 12 14 7 12 17 8 10 10 12 16 19 18 19 15 11 7 4 3 4 4 7 18 18 20 13 12 8 9 10 7 10 7 7 4 3 11 12 17 10
9 5 9 14 15 11 11 10 7 10 10 11 8 11 15 7 10 8 13 16 17 17 16 15 12 10 7 4 4 4 3 19 23 22 15 17 19 13 11 11 12 13 10 4 4 6 10 13 17
10 9 5 4 16 14 11 7 4 7 8 15 5 12 13 11 5 7 13 15 14 17 16 18 14 13 11 9 7 6 5 7 17 28 21 21 18 21 19 18 18 14 12 11 9 10 12 16 19
11 9 8 4 16 10 8 8 3 4 12 5 3 9 19 7 4 7 12 13 13 15 18 17 16 17 15 15 12 11 11 9 9 15 20 23 23 24 23 26 24 24 16 17 15 15 16 18 20
9 9 12 7 9 13 11 9 5 1 4 3 5 11 10 6 5 7 10 11 11 11 14 18 20 19 18 17 18 18 17 16 14 16 19 23 23 26 30 29 25 19 22 21 22 21 22 22 21
9 9 6 11 7 3 6 4 5 8 11 10 10 10 9 9 6 4 6 9 12 13 14 16 17 20 21 21 23 24 25 24 22 22 21 23 23 23 24 27 24 23 24 24 26 27 29 30 26
5 17 8 2 3 3 1 5 3 7 10 5 7 11 7 5 2 6 9 12 14 16 19 17 21 22 22 24 23 27 26 29 28 27 27 26 24 29 33 33 33 30 29 30 29 31 32 24 22
14 14 9 2 1 2 9 3 10 12 5 7 7 7 1 4 5 9 11 14 15 17 18 22 25 25 28 28 28 26 31 31 32 33 33 34 33 33 31 28 27 29 25 29 30 27 28 31 35
22 19 15 11 8 10 7 17 18 16 14 10 8 12 10 9 10 13 15 14 15 15 18 21 26 33 33 35 36 33 32 36 35 36 38 39 38 37 34 34 33 31 29 29 32 34 36 36 38
5 26 25 16 19 14 12 25 8 16 22 18 12 16 17 18 18 19 19 16 17 21 25 26 30 33 40 42 41 44 40 37 39 39 41 42 42 41 39 38 38 37 35 33 33 35 37 39 40
13 18 19 25 26 27 11 30 36 35 33 30 31 29 27 25 22 22 22 25 27 30 32 32 37 38 44 48 50 48 51 52 48 46 42 43 45 43 43 41 41 40 38 38 39 40 41 43 43
19 25 31 29 35 19 13 38 23 18 22 32 25 21 26 31 33 32 33 39 42 42 40 39 41 55 55 50 49 54 52 55 58 52 49 48 47 45 44 46 44 41 40 40 40 39 41 43 40
26 30 36 37 17 23 23 29 28 14 21 32 31 29 34 43 49 46 44 44 43 40 39 42 42 45 52 57 50 49 51 52 55 55 51 52 52 50 47 46 47 43 44 43 45 47 48 49 47
34 34 36 28 18 24 33 37 33 21 25 33 43 47 46 51 58 46 41 38 34 32 37 44 46 47 42 49 52 51 49 52 58 60 55 50 51 50 48 49 49 48 50 50 51 52 52 54 56
35 25 35 26 22 10 30 35 37 44 49 49 48 47 51 57 54 43 37 31 31 40 40 44 44 44 39 42 49 52 55 52 60 64 63 57 48 49 50 50 50 51 55 54 52 51 55 63 63
37 34 31 22 7 8 30 41 41 49 51 53 51 54 56 55 46 34 26 35 41 45 45 47 48 46 41 38 40 38 35 38 49 46 48 51 48 47 50 50 49 49 49 52 53 56 61 65 64
39 40 31 31 22 26 31 47 46 50 64 61 56 57 48 42 35 27 21 26 32 35 34 34 37 38 38 34 31 34 33 34 32 31 32 37 38 34 38 40 44 44 45 50 50 49 50 57 57
37 32 29 27 22 21 10 16 26 15 21 26 40 40 40 30 17 11 15 19 24 25 25 24 23 22 20 25 26 29 30 28 22 18 19 24 23 25 24 30 33 39 43 46 47 46 48 49 54
26 19 18 21 26 31 36 22 19 22 21 19 21 29 31 10 9 7 13 17 18 18 16 14 12 13 16 22 25 23 25 25 26 24 21 19 21 24 24 27 28 32 34 37 39 41 42 44 48
15 10 8 11 16 24 34 29 30 32 36 35 8 2 6 5 5 6 11 11 11 10 9 7 6 6 1 8 17 24 27 27 27 23 23 24 26 30 34 30 30 27 27 31 36 38 40 40 43
35 24 9 11 14 21 9 24 43 2 3 8 12 8 12 13 10 7 5 5 6 3 3 5 8 11 11 10 11 13 14 17 19 19 18 20 22 24 29 29 34 32 33 34 31 27 34 40 46
43 34 14 15 18 17 26 22 25 19 30 15 8 14 19 15 13 12 11 9 9 6 5 6 9 13 16 18 18 17 16 14 13 12 11 8 6 3 2 5 8 11 15 18 23 30 30 30 32
28 35 33 26 2 9 20 19 23 14 18 18 19 17 20 18 16 14 14 14 13 13 12 12 12 15 16 18 19 18 17 16 16 13 10 9 7 6 5 7 10 12 16 19 20 24 29 32 37
24 17 19 9 14 24 28 36 26 29 31 22 23 31 26 23 20 18 15 15 16 16 15 16 16 16 19 18 19 18 16 14 13 11 8 5 3 3 6 9 14 18 20 24 27 28 30 33 36
24 20 17 14 19 14 26 27 24 19 26 29 33 33 31 28 27 24 22 22 21 19 18 17 17 15 15 14 13 11 9 5 2 1 3 4 5 8 11 12 14 17 21 23 28 32 36 40 43
36 41 36 14 18 11 11 24 8 5 11 21 28 33 33 35 33 30 29 27 26 24 21 17 15 13 9 7 5 2 1 1 3 4 8 9 11 12 14 16 18 22 26 29 34 37 41 45 50
Wind_Direction_500mb
347 351 344 280 238 218 98 83 84 71 98 45 33 3 24 38 12 34 135 156 138 146 176 161 162 184 226 356 0 12 136 124 147 223 231 256 268 278 276 179 136 114 115 136 137 142 136 140 163
344 355 306 281 260 177 86 103 84 65 80 68 51 311 40 72 48 77 92 148 144 151 164 175 169 184 277 334 336 306 189 174 175 219 331 311 264 219 147 170 105 131 111 127 155 159 133 114 165
347 345 286 285 280 62 103 93 100 108 80 33 110 40 22 41 45 89 125 155 149 156 165 184 180 201 279 315 319 250 196 190 147 162 206 289 353 211 197 157 140 146 153 160 197 183 150 135 220
349 268 222 262 96 62 100 100 110 133 111 61 29 74 90 51 66 94 141 148 151 165 178 184 191 221 246 281 313 284 208 194 165 178 211 250 289 329 270 190 205 162 238 198 212 192 190 190 238
326 270 229 129 99 112 90 101 110 103 98 80 1 91 73 64 71 100 132 146 159 173 187 192 208 226 260 299 317 295 203 199 174 195 190 196 245 288 281 264 237 231 226 239 213 178 207 203 209
286 285 231 182 125 127 116 127 138 90 96 99 97 93 69 85 87 118 145 152 171 176 198 221 215 228 246 274 299 319 272 199 187 201 194 193 221 250 286 283 234 249 246 248 256 226 223 222 237
334 288 23 70 140 151 124 144 170 87 115 76 56 74 90 74 111 112 146 157 177 183 201 223 235 234 242 252 267 282 269 245 228 218 204 208 229 235 255 265 259 249 242 247 249 255 247 244 249
320 277 210 192 183 122 125 160 82 295 83 81 9 46 80 63 64 116 147 164 187 210 203 222 230 253 245 250 253 258 260 256 242 220 216 211 225 240 254 264 256 253 252 250 243 249 254 257 261
310 254 219 178 201 115 140 189 116 151 147 121 80 63 98 38 64 125 158 189 226 233 235 221 232 228 232 237 253 255 257 254 248 244 227 229 234 242 251 258 263 256 251 252 270 268 261 261 264
275 265 272 33 23 101 120 241 138 212 174 162 144 102 79 56 111 166 207 242 270 269 259 257 242 244 236 239 243 258 259 255 252 247 244 241 236 237 241 260 268 270 266 258 259 271 275 266 268
187 253 65 161 41 19 110 216 210 239 216 94 112 126 97 96 198 236 256 247 253 258 263 276 270 251 243 246 246 253 247 252 249 244 242 242 238 240 255 248 264 259 261 260 261 259 265 268 265
241 240 245 127 163 233 224 287 241 241 79 121 143 145 137 289 245 245 252 256 257 258 258 258 285 277 263 247 252 244 244 247 245 247 249 242 243 248 247 254 250 261 252 261 255 268 270 264 248
236 243 227 202 197 232 256 250 260 250 238 222 231 254 260 242 252 269 274 268 266 269 268 269 272 284 282 262 254 248 245 247 245 248 251 249 247 251 252 252 251 250 256 252 256 247 252 258 269
295 235 231 223 230 228 240 251 212 241 251 238 225 250 247 250 258 265 266 271 280 285 285 282 278 278 277 280 265 255 254 248 251 248 249 254 251 251 254 257 257 257 256 256 256 258 260 264 264
218 219 227 237 239 242 250 250 245 243 249 248 263 259 252 256 256 257 261 274 281 283 285 283 283 274 274 278 279 264 254 258 253 256 255 250 258 255 254 257 259 261 263 263 260 262 264 262 263
221 233 247 230 228 216 218 260 257 221 231 244 240 240 254 266 267 269 275 280 282 283 282 281 278 283 274 265 269 273 264 255 260 254 252 258 256 259 256 257 258 260 263 264 268 268 269 270 266
219 237 230 243 214 231 217 264 259 271 230 249 251 251 261 270 271 274 279 283 283 282 280 278 274 269 267 268 260 257 261 262 262 261 256 251 256 260 260 259 260 255 259 260 265 269 270 272 271
228 229 246 235 195 225 242 250 258 213 225 248 261 266 268 268 272 280 284 285 281 286 282 278 276 274 265 263 262 254 248 253 258 266 265 256 253 257 258 258 257 255 262 264 266 270 270 272 277
255 255 246 246 241 257 257 262 264 262 263 261 261 262 262 266 275 282 285 286 285 286 284 283 279 273 264 257 256 250 249 248 254 261 265 267 259 253 255 257 257 259 261 266 267 265 267 270 273
237 245 244 259 249 270 270 268 268 264 257 256 257 260 262 267 274 279 285 276 288 294 293 288 279 277 266 253 247 243 242 245 264 269 262 264 263 252 249 257 258 256 257 265 268 264 266 271 272
229 234 240 248 259 233 271 275 255 251 248 249 251 255 261 268 278 279 288 294 299 304 302 297 284 273 268 257 243 238 235 239 242 239 258 274 271 260 252 254 255 256 254 259 268 267 271 271 276
236 227 243 259 262 255 163 288 297 271 253 238 238 250 259 263 262 278 288 297 305 309 314 312 301 279 268 252 237 232 233 240 248 247 243 246 258 270 271 265 261 258 261 263 270 270 270 276 279
247 248 219 239 251 269 253 268 278 241 249 240 231 252 249 227 240 256 282 290 302 312 322 328 323 291 251 234 206 218 233 233 228 232 230 240 244 250 253 253 266 273 276 279 278 281 284 284 289
220 170 193 245 259 254 246 239 262 248 235 237 230 210 162 181 194 249 268 275 295 302 318 333 357 3 114 194 199 204 214 223 232 245 249 245 252 250 253 253 252 259 269 277 278 281 279 284 290
201 189 197 217 211 246 206 217 249 104 26 180 234 263 183 205 193 193 222 251 245 261 336 24 51 61 88 118 146 174 188 209 224 231 239 237 238 252 259 265 268 264 271 270 270 275 288 290 285
196 191 187 218 224 261 198 238 238 269 243 226 209 190 193 199 208 190 206 211 209 193 159 115 102 98 101 107 118 133 141 152 159 152 153 162 171 185 268 296 298 295 290 288 287 283 273 276 286
192 222 228 280 316 277 237 229 259 213 187 199 219 218 216 198 193 190 181 187 188 178 166 148 129 120 117 116 116 118 120 124 122 120 113 101 80 56 21 347 326 317 311 308 307 302 299 294 286
228 206 207 202 224 236 243 252 251 185 216 210 224 220 204 199 192 183 175 184 186 176 164 154 144 136 126 124 125 121 119 116 113 111 110 99 61 342 318 309 309 306 305 302 295 293 294 297 300
199 222 223 222 236 246 259 256 249 257 218 199 214 211 202 202 195 187 186 191 188 177 167 160 155 148 141 136 127 121 115 111 89 350 345 325 323 313 306 305 303 300 301 307 308 309 309 312 311
212 214 209 212 196 220 268 260 152 69 268 187 198 199 199 198 196 191 191 189 186 184 180 171 166 164 154 138 146 165 169 294 302 314 313 318 318 323 324 320 320 320 322 318 318 319 320 320 319
Wind_Speed_850mb
33 28 10 6 10 2 11 10 8 9 9 12 9 14 18 21 20 9 5 10 18 22 17 19 16 12 4 4 5 4 2 12 10 6 13 12 9 5 3 6 7 8 8 18 20 18 14 12 8
32 24 6 7 8 10 14 8 15 16 17 9 6 6 7 20 17 10 10 12 21 19 17 18 17 11 3 5 5 1 6 6 14 7 2 2 5 3 7 5 8 11 11 14 16 13 13 12 6
28 14 10 4 5 13 13 9 18 16 8 8 4 10 10 13 12 7 8 13 21 19 20 20 14 4 3 5 4 3 7 10 11 7 6 7 7 3 6 3 5 5 11 11 7 13 12 10 8
25 4 7 11 15 13 18 14 16 16 9 6 4 13 13 11 5 5 8 15 22 20 22 15 13 7 4 2 4 4 10 17 15 14 14 8 6 9 8 5 5 4 3 10 5 18 14 9 7
11 8 5 7 11 12 13 14 7 10 12 14 7 12 17 8 10 10 12 16 19 18 19 15 11 7 4 3 4 4 7 18 18 20 13 12 8 9 10 7 10 7 7 4 3 11 12 17 10
9 5 9 14 15 11 11 10 7 10 10 11 8 11 15 7 10 8 13 16 17 17 16 15 12 10 7 4 4 4 3 19 23 22 15 17 19 13 11 11 12 13 10 4 4 6 10 13 17
10 9 5 4 16 14 11 7 4 7 8 15 5 12 13 11 5 7 13 15 14 17 16 18 14 13 11 9 7 6 5 7 17 28 21 21 18 21 19 18 18 14 12 11 9 10 12 16 19
11 9 8 4 16 10 8 8 3 4 12 5 3 9 19 7 4 7 12 13 13 15 18 17 16 17 15 15 12 11 11 9 9 15 20 23 23 24 23 26 24 24 16 17 15 15 16 18 20
9 9 12 7 9 13 11 9 5 1 4 3 5 11 10 6 5 7 10 11 11 11 14 18 20 19 18 17 18 18 17 16 14 16 19 23 23 26 30 29 25 19 22 21 22 21 22 22 21
9 9 6 11 7 3 6 4 5 8 11 10 10 10 9 9 6 4 6 9 12 13 14 16 17 20 21 21 23 24 25 24 22 22 21 23 23 23 24 27 24 23 24 24 26 27 29 30 26
5 17 8 2 3 3 1 5 3 7 10 5 7 11 7 5 2 6 9 12 14 16 19 17 21 22 22 24 23 27 26 29 28 27 27 26 24 29 33 33 33 30 29 30 29 31 32 24 22
14 14 9 2 1 2 9 3 10 12 5 7 7 7 1 4 5 9 11 14 15 17 18 22 25 25 28 28 28 26 31 31 32 33 33 34 33 33 31 28 27 29 25 29 30 27 28 31 35
22 19 15 11 8 10 7 17 18 16 14 10 8 12 10 9 10 13 15 14 15 15 18 21 26 33 33 35 36 33 32 36 35 36 38 39 38 37 34 34 33 31 29 29 32 34 36 36 38
5 26 25 16 19 14 12 25 8 16 22 18 12 16 17 18 18 19 19 16 17 21 25 26 30 33 40 42 41 44 40 37 39 39 41 42 42 41 39 38 38 37 35 33 33 35 37 39 40
13 18 19 25 26 27 11 30 36 35 33 30 31 29 27 25 22 22 22 25 27 30 32 32 37 38 44 48 50 48 51 52 48 46 42 43 45 43 43 41 41 40 38 38 39 40 41 43 43
19 25 31 29 35 19 13 38 23 18 22 32 25 21 26 31 33 32 33 39 42 42 40 39 41 55 55 50 49 54 52 55 58 52 49 48 47 45 44 46 44 41 40 40 40 39 41 43 40
26 30 36 37 17 23 23 29 28 14 21 32 31 29 34 43 49 46 44 44 43 40 39 42 42 45 52 57 50 49 51 52 55 55 51 52 52 50 47 46 47 43 44 43 45 47 48 49 47
34 34 36 28 18 24 33 37 33 21 25 33 43 47 46 51 58 46 41 38 34 32 37 44 46 47 42 49 52 51 49 52 58 60 55 50 51 50 48 49 49 48 50 50 51 52 52 54 56
35 25 35 26 22 10 30 35 37 44 49 49 48 47 51 57 54 43 37 31 31 40 40 44 44 44 39 42 49 52 55 52 60 64 63 57 48 49 50 50 50 51 55 54 52 51 55 63 63
37 34 31 22 7 8 30 41 41 49 51 53 51 54 56 55 46 34 26 35 41 45 45 47 48 46 41 38 40 38 35 38 49 46 48 51 48 47 50 50 49 49 49 52 53 56 61 65 64
39 40 31 31 22 26 31 47 46 50 64 61 56 57 48 42 35 27 21 26 32 35 34 34 37 38 38 34 31 34 33 34 32 31 32 37 38 34 38 40 44 44 45 50 50 49 50 57 57
37 32 29 27 22 21 10 16 26 15 21 26 40 40 40 30 17 11 15 19 24 25 25 24 23 22 20 25 26 29 30 28 22 18 19 24 23 25 24 30 33 39 43 46 47 46 48 49 54
26 19 18 21 26 31 36 22 19 22 21 19 21 29 31 10 9 7 13 17 18 18 16 14 12 13 16 22 25 23 25 25 26 24 21 19 21 24 24 27 28 32 34 37 39 41 42 44 48
15 10 8 11 16 24 34 29 30 32 36 35 8 2 6 5 5 6 11 11 11 10 9 7 6 6 1 8 17 24 27 27 27 23 23 24 26 30 34 30 30 27 27 31 36 38 40 40 43
35 24 9 11 14 21 9 24 43 2 3 8 12 8 12 13 10 7 5 5 6 3 3 5 8 11 11 10 11 13 14 17 19 19 18 20 22 24 29 29 34 32 33 34 31 27 34 40 46
43 34 14 15 18 17 26 22 25 19 30 15 8 14 19 15 13 12 11 9 9 6 5 6 9 13 16 18 18 17 16 14 13 12 11 8 6 3 2 5 8 11 15 18 23 30 30 30 32
28 35 33 26 2 9 20 19 23 14 18 18 19 17 20 18 16 14 14 14 13 13 12 12 12 15 16 18 19 18 17 16 16 13 10 9 7 6 5 7 10 12 16 19 20 24 29 32 37
24 17 19 9 14 24 28 36 26 29 31 22 23 31 26 23 20 18 15 15 16 16 15 16 16 16 19 18 19 18 16 14 13 11 8 5 3 3 6 9 14 18 20 24 27 28 30 33 36
24 20 17 14 19 14 26 27 24 19 26 29 33 33 31 28 27 24 22 22 21 19 18 17 17 15 15 14 13 11 9 5 2 1 3 4 5 8 11 12 14 17 21 23 28 32 36 40 43
36 41 36 14 18 11 11 24 8 5 11 21 28 33 33 35 33 30 29 27 26 24 21 17 15 13 9 7 5 2 1 1 3 4 8 9 11 12 14 16 18 22 26 29 34 37 41 45 50
Wind_Direction_850mb
347 351 344 280 238 218 98 83 84 71 98 45 33 3 24 38 12 34 135 156 138 146 176 161 162 184 226 356 0 12 136 124 147 223 231 256 268 278 276 179 136 114 115 136 137 142 136 140 163
344 355 306 281 260 177 86 103 84 65 80 68 51 311 40 72 48 77 92 148 144 151 164 175 169 184 277 334 336 306 189 174 175 219 331 311 264 219 147 170 105 131 111 127 155 159 133 114 165
347 345 286 285 280 62 103 93 100 108 80 33 110 40 22 41 45 89 125 155 149 156 165 184 180 201 279 315 319 250 196 190 147 162 206 289 353 211 197 157 140 146 153 160 197 183 150 135 220
349 268 222 262 96 62 100 100 110 133 111 61 29 74 90 51 66 94 141 148 151 165 178 184 191 221 246 281 313 284 208 194 165 178 211 250 289 329 270 190 205 162 238 198 212 192 190 190 238
326 270 229 129 99 112 90 101 110 103 98 80 1 91 73 64 71 100 132 146 159 173 187 192 208 226 260 299 317 295 203 199 174 195 190 196 245 288 281 264 237 231 226 239 213 178 207 203 209
286 285 231 182 125 127 116 127 138 90 96 99 97 93 69 85 87 118 145 152 171 176 198 221 215 228 246 274 299 319 272 199 187 201 194 193 221 250 286 283 234 249 246 248 256 226 223 222 237
334 288 23 70 140 151 124 144 170 87 115 76 56 74 90 74 111 112 146 157 177 183 201 223 235 234 242 252 267 282 269 245 228 218 204 208 229 235 255 265 259 249 242 247 249 255 247 244 249
320 277 210 192 183 122 125 160 82 295 83 81 9 46 80 63 64 116 147 164 187 210 203 222 230 253 245 250 253 258 260 256 242 220 216 211 225 240 254 264 256 253 252 250 243 249 254 257 261
310 254 219 178 201 115 140 189 116 151 147 121 80 63 98 38 64 125 158 189 226 233 235 221 232 228 232 237 253 255 257 254 248 244 227 229 234 242 251 258 263 256 251 252 270 268 261 261 264
275 265 272 33 23 101 120 241 138 212 174 162 144 102 79 56 111 166 207 242 270 269 259 257 242 244 236 239 243 258 259 255 252 247 244 241 236 237 241 260 268 270 266 258 259 271 275 266 268
187 253 65 161 41 19 110 216 210 239 216 94 112 126 97 96 198 236 256 247 253 258 263 276 270 251 243 246 246 253 247 252 249 244 242 242 238 240 255 248 264 259 261 260 261 259 265 268 265
241 240 245 127 163 233 224 287 241 241 79 121 143 145 137 289 245 245 252 256 257 258 258 258 285 277 263 247 252 244 244 247 245 247 249 242 243 248 247 254 250 261 252 261 255 268 270 264 248
236 243 227 202 197 232 256 250 260 250 238 222 231 254 260 242 252 269 274 268 266 269 268 269 272 284 282 262 254 248 245 247 245 248 251 249 247 251 252 252 251 250 256 252 256 247 252 258 269
295 235 231 223 230 228 240 251 212 241 251 238 225 250 247 250 258 265 266 271 280 285 285 282 278 278 277 280 265 255 254 248 251 248 249 254 251 251 254 257 257 257 256 256 256 258 260 264 264
218 219 227 237 239 242 250 250 245 243 249 248 263 259 252 256 256 257 261 274 281 283 285 283 283 274 274 278 279 264 254 258 253 256 255 250 258 255 254 257 259 261 263 263 260 262 264 262 263
221 233 247 230 228 216 218 260 257 221 231 244 240 240 254 266 267 269 275 280 282 283 282 281 278 283 274 265 269 273 264 255 260 254 252 258 256 259 256 257 258 260 263 264 268 268 269 270 266
219 237 230 243 214 231 217 264 259 271 230 249 251 251 261 270 271 274 279 283 283 282 280 278 274 269 267 268 260 257 261 262 262 261 256 251 256 260 260 259 260 255 259 260 265 269 270 272 271
228 229 246 235 195 225 242 250 258 213 225 248 261 266 268 268 272 280 284 285 281 286 282 278 276 274 265 263 262 254 248 253 258 266 265 256 253 257 258 258 257 255 262 264 266 270 270 272 277
255 255 246 246 241 257 257 262 264 262 263 261 261 262 262 266 275 282 285 286 285 286 284 283 279 273 264 257 256 250 249 248 254 261 265 267 259 253 255 257 257 259 261 266 267 265 267 270 273
237 245 244 259 249 270 270 268 268 264 257 256 257 260 262 267 274 279 285 276 288 294 293 288 279 277 266 253 247 243 242 245 264 269 262 264 263 252 249 257 258 256 257 265 268 264 266 271 272
229 234 240 248 259 233 271 275 255 251 248 249 251 255 261 268 278 279 288 294 299 304 302 297 284 273 268 257 243 238 235 239 242 239 258 274 271 260 252 254 255 256 254 259 268 267 271 271 276
236 227 243 259 262 255 163 288 297 271 253 238 238 250 259 263 262 278 288 297 305 309 314 312 301 279 268 252 237 232 233 240 248 247 243 246 258 270 271 265 261 258 261 263 270 270 270 276 279
247 248 219 239 251 269 253 268 278 241 249 240 231 252 249 227 240 256 282 290 302 312 322 328 323 291 251 234 206 218 233 233 228 232 230 240 244 250 253 253 266 273 276 279 278 281 284 284 289
220 170 193 245 259 254 246 239 262 248 235 237 230 210 162 181 194 249 268 275 295 302 318 333 357 3 114 194 199 204 214 223 232 245 249 245 252 250 253 253 252 259 269 277 278 281 279 284 290
201 189 197 217 211 246 206 217 249 104 26 180 234 263 183 205 193 193 222 251 245 261 336 24 51 61 88 118 146 174 188 209 224 231 239 237 238 252 259 265 268 264 271 270 270 275 288 290 285
196 191 187 218 224 261 198 238 238 269 243 226 209 190 193 199 208 190 206 211 209 193 159 115 102 98 101 107 118 133 141 152 159 152 153 162 171 185 268 296 298 295 290 288 287 283 273 276 286
192 222 228 280 316 277 237 229 259 213 187 199 219 218 216 198 193 190 181 187 188 178 166 148 129 120 117 116 116 118 120 124 122 120 113 101 80 56 21 347 326 317 311 308 307 302 299 294 286
228 206 207 202 224 236 243 252 251 185 216 210 224 220 204 199 192 183 175 184 186 176 164 154 144 136 126 124 125 121 119 116 113 111 110 99 61 342 318 309 309 306 305 302 295 293 294 297 300
199 222 223 222 236 246 259 256 249 257 218 199 214 211 202 202 195 187 186 191 188 177 167 160 155 148 141 136 127 121 115 111 89 350 345 325 323 313 306 305 303 300 301 307 308 309 309 312 311
212 214 209 212 196 220 268 260 152 69 268 187 198 199 199 198 196 191 191 189 186 184 180 171 166 164 154 138 146 165 169 294 302 314 313 318 318 323 324 320 320 320 322 318 318 319 320 320 319